SCP
0 0 0 0 0 0 0 0 0 0 0 0 0 0 0 0 0 0 0 0 0 0 0 0 0 0 0 0 0 0 0 0 0 0 0 0 0 0 0 0 0 0 0
0 0 0 0 0 0 0 0 0 0 0 0 0 0 0 0 0 0 0 0 0 0 0 0 0 0 0 0 0 0 0 0 0 0 0 0 0 0 0 0 0 0 0
0 0 0 0 0 0 0 0 0 0 0 0 0 0 0 0 0 0 0 0 0 0 0 0 0 0 0 0 0 0 0 0 0 0 0 0 0 0 0 0 0 0 0
0 0 0 0 0 0 0 0 0 0 0 0 0 0 0 0 0 0 0 0 0 0 0 0 0 0 0 0 0 0 0 0 0 0 0 0 0 0 0 0 0 0 0
0 0 0 0 0 0 0 0 0 0 0 0 0 0 0 0 0 0 0 0 0 0 0 0 0 0 0 0 0 0 0 0 0 0 0 0 0 0 0 0 0 0 0
0 0 0 0 0 0 0 0 0 0 0 0 0 0 0 0 0 0 0 0 0 0 0 0 0 0 0 0 0 0 0 0 0 0 0 0 0 0 0 0 0 0 0
0 0 0 0 0 0 0 0 0 0 0 0 0 0 0 0 0 0 0 0 0 0 0 0 0 0 0 0 0 0 0 0 0 0 0 0 0 0 0 0 0 0 0
0 0 0 0 0 0 0 0 0 0 0 0 0 0 0 0 0 0 0 0 0 0 0 0 0 0 0 0 0 0 0 0 0 0 0 0 0 0 0 0 0 0 0
0 0 0 0 0 0 0 0 0 0 0 0 0 0 0 0 0 0 0 0 0 0 0 0 0 0 0 0 0 0 0 0 0 0 0 0 0 0 0 0 0 0 0
0 0 0 0 0 0 0 0 0 0 0 0 0 0 0 0 0 0 0 0 0 0 0 0 0 0 0 0 0 0 0 0 0 0 0 0 0 0 0 0 0 0 0
0 0 0 0 0 0 0 0 0 0 0 0 0 0 0 0 0 0 0 0 0 0 0 0 0 0 0 0 0 0 0 0 0 0 0 0 0 0 0 0 0 0 0
0 0 0 0 0 0 0 0 0 0 0 0 0 0 0 0 0 0 0 0 0 0 0 0 0 0 0 0 0 0 0 0 0 0 0 0 0 0 0 0 0 0 0
0 0 0 0 0 0 0 0 0 0 0 0 0 0 0 0 0 0 0 0 0 0 0 0 0 0 0 0 0 0 0 0 0 0 0 0 0 0 0 0 0 0 0
0 0 0 0 0 0 0 0 0 0 0 0 0 0 0 0 0 0 0 0 0 0 0 0 0 0 0 0 0 0 0 0 0 0 0 0 0 0 0 0 0 0 0
0 0 0 0 0 0 0 0 0 0 0 0 0 0 0 0 0 0 0 0 0 0 0 0 0 0 0 0 0 0 0 0 0 0 0 0 0 0 0 0 0 0 0
0 0 0 0 0 0 0 0 0 0 0 0 0 0 0 0 0 0 0 0 0 0 0 0 0 0 0 0 0 0 0 0 0 0 0 0 0 0 0 0 0 0 0
0 0 0 0 0 0 0 0 0 0 0 0 0 0 0 0 0 0 0 0 0 0 0 0 0 0 0 0 0 0 0 0 0 0 0 0 0 0 0 0 0 0 0
0 0 0 0 0 0 0 0 0 0 0 0 0 0 0 0 0 0 0 0 0 0 0 0 0 0 0 0 0 0 0 0 0 0 0 0 0 0 0 0 0 0 0
0 0 0 0 0 0 0 0 0 0 0 0 0 0 0 0 0 0 0 0 0 0 0 0 0 0 0 0 0 0 0 0 0 0 0 0 0 0 0 0 0 0 0
0 0 0 0 0 0 0 0 0 0 0 0 0 0 0 0 0 0 0 0 0 0 0 0 0 0 0 0 0 0 0 0 0 0 0 0 0 0 0 0 0 0 0
0 0 0 0 0 0 0 0 0 0 0 0 0 0 0 0 0 0 0 0 0 0 0 0 0 0 0 0 0 0 0 0 0 0 0 0 0 0 0 0 0 0 0
0 0 0 0 0 0 0 0 0 0 0 0 0 0 0 0 0 0 0 0 0 0 0 0 0 0 0 0 0 0 0 0 0 0 0 0 0 0 0 0 0 0 0
0 0 0 0 0 0 0 0 0 0 0 0 0 0 0 0 0 0 0 0 0 0 0 0 0 0 0 0 0 0 0 0 0 0 0 0 0 0 0 0 0 0 0
0 0 0 0 0 0 0 0 0 0 0 0 0 0 0 0 0 0 0 0 0 0 0 0 0 0 0 0 0 0 0 0 0 0 0 0 0 0 0 0 0 0 0
0 0 0 0 0 0 0 0 0 0 0 0 0 0 0 0 0 0 0 0 0 0 0 0 0 0 0 0 0 0 0 0 0 0 0 0 0 0 0 0 0 0 0
0 0 0 0 0 0 0 0 0 0 0 0 0 0 0 0 0 0 0 0 0 0 0 0 0 0 0 0 0 0 0 0 0 0 0 0 0 0 0 0 0 0 0
Wind_Speed
1 1 4 5 7 8 8 9 8 8 8 8 9 9 9 9 9 9 9 9 8 8 8 8 9 9 9 9 8 8 9 9 9 10 10 10 10 10 10 9 8 6 10
3 2 5 6 7 8 8 8 8 8 8 8 8 8 8 8 8 8 8 8 8 8 8 8 8 8 8 8 8 8 9 9 9 9 9 8 9 9 9 8 8 5 9
4 3 5 7 8 8 8 8 8 8 8 8 7 7 7 7 7 7 7 7 7 7 7 7 7 7 7 7 8 8 8 8 8 8 7 4 4 7 8 7 7 7 8
5 4 5 7 8 8 8 8 8 8 8 7 7 7 7 6 6 6 6 6 6 6 6 6 6 6 6 6 7 7 7 7 8 7 4 2 2 6 6 6 7 7 6
5 4 5 8 8 8 8 8 8 7 7 7 7 6 6 6 6 5 5 5 5 5 5 5 5 5 6 6 6 6 6 7 7 5 3 2 2 5 6 5 5 6 5
5 4 5 8 8 8 8 8 8 7 7 6 6 6 6 6 5 5 4 4 5 5 5 5 5 5 5 5 5 5 5 6 6 3 2 2 1 4 5 5 5 4 4
4 3 4 7 8 8 8 7 7 7 6 6 6 5 5 5 5 5 4 4 4 4 4 4 4 4 4 4 4 4 5 5 4 3 2 1 1 4 5 4 3 3 3
5 5 5 7 8 8 7 7 7 6 5 5 5 5 5 6 5 5 4 3 3 3 4 3 4 3 3 3 3 4 5 5 4 3 1 1 2 3 4 3 3 2 2
5 6 5 4 5 7 7 7 6 6 5 5 4 4 4 5 5 4 4 3 3 2 3 3 2 3 2 2 3 3 4 4 3 1 1 0 1 2 2 2 2 2 1
5 5 4 4 4 4 4 6 6 6 5 5 5 4 4 4 4 4 3 3 3 3 2 2 2 1 1 1 2 2 3 3 1 0 0 1 1 2 2 2 2 1 1
4 3 3 4 3 3 3 4 5 5 5 5 4 5 4 2 1 2 3 2 2 2 2 2 1 1 1 1 1 1 2 1 0 0 1 1 2 3 2 2 2 2 2
2 2 2 3 3 3 2 2 2 2 3 3 2 2 1 1 1 2 2 2 2 3 2 2 2 2 1 0 0 1 0 1 1 1 1 2 3 3 3 3 3 3 3
3 2 1 2 2 2 2 1 1 1 2 2 3 2 2 1 1 1 1 1 1 2 1 1 1 1 1 0 0 0 1 1 1 1 2 2 2 3 3 4 3 3 3
3 2 1 1 2 1 1 1 1 1 1 1 2 2 1 1 1 1 1 1 1 0 1 1 0 1 1 1 1 1 1 1 1 1 2 2 2 2 3 3 4 3 3
3 2 1 1 1 1 1 0 1 0 0 0 1 1 1 1 0 0 0 0 1 0 0 1 1 1 1 1 1 1 1 2 2 1 1 2 2 2 3 3 3 3 4
3 2 1 1 1 1 1 0 0 1 1 0 0 1 1 0 0 0 1 1 1 1 1 1 1 1 2 1 1 2 2 2 2 2 2 2 2 3 4 4 4 5 5
3 2 1 1 1 1 1 0 0 1 0 0 1 1 1 0 0 0 1 1 1 1 1 1 1 1 1 1 2 2 2 2 2 2 2 2 2 3 3 4 5 5 5
3 3 2 1 1 1 1 1 0 1 1 1 1 1 1 1 1 1 1 2 2 1 1 1 1 1 1 1 2 2 2 2 2 3 2 2 2 2 3 4 4 5 6
3 3 2 1 1 1 1 1 1 1 1 1 1 1 2 2 2 1 1 2 1 1 1 1 1 1 2 2 2 2 2 2 2 2 2 2 2 2 2 3 4 5 6
2 2 2 1 1 1 0 0 0 1 1 1 1 2 2 2 2 2 2 2 1 1 1 2 2 2 2 2 2 2 2 3 2 3 3 2 2 2 2 2 2 4 6
1 2 2 1 1 0 0 0 1 1 1 1 1 2 2 2 2 2 2 2 2 2 3 3 2 2 1 1 0 2 2 2 2 2 2 2 3 3 2 2 2 2 3
2 2 2 2 1 1 1 1 2 2 2 2 2 2 2 2 3 2 2 2 2 2 3 3 2 1 1 1 1 0 2 2 2 2 2 3 3 2 2 3 3 3 2
3 3 3 3 2 2 1 0 1 1 1 1 2 2 2 3 3 3 3 3 3 3 3 3 3 3 2 2 2 2 1 2 3 2 2 2 2 2 3 3 3 3 3
3 3 3 3 3 2 1 1 1 1 2 3 3 3 3 3 3 3 3 3 3 3 3 3 3 3 3 2 2 2 2 2 2 2 2 2 2 3 3 3 3 3 3
3 3 3 2 2 2 2 2 2 2 3 2 2 3 3 3 3 3 3 3 3 3 4 3 3 3 3 3 3 2 1 1 2 2 4 3 2 2 2 3 3 3 3
2 2 2 2 2 2 2 2 2 3 3 3 3 3 3 3 3 3 4 3 4 3 4 4 4 4 4 4 3 3 2 2 2 2 4 4 3 3 2 2 3 2 2
Wind_Direction
197 210 104 94 103 103 97 93 91 90 87 88 94 98 98 96 95 92 89 89 87 85 85 87 83 79 80 83 84 85 85 84 82 82 82 83 86 87 89 89 88 84 89
161 136 101 99 104 104 100 96 92 89 88 89 92 101 103 102 99 96 94 92 91 88 86 88 86 82 80 84 85 86 86 85 81 81 78 80 84 86 88 93 93 94 92
119 109 103 98 101 100 101 96 93 90 88 88 88 96 104 105 104 102 100 97 96 96 93 91 90 88 82 86 87 87 86 87 83 83 74 66 82 89 88 93 95 96 98
116 103 100 97 101 98 99 97 96 92 86 85 87 92 97 102 106 106 106 103 101 100 97 93 92 91 85 90 90 87 86 84 84 80 70 63 77 98 95 93 93 93 97
100 95 101 97 100 100 97 94 92 91 88 84 85 90 94 94 98 103 107 105 103 101 99 96 95 99 94 96 95 90 86 86 80 68 61 56 62 103 99 92 89 88 91
86 81 95 98 98 98 96 91 87 87 87 86 85 85 92 94 92 92 97 101 102 103 103 102 99 101 101 97 95 87 83 84 80 71 65 62 66 105 99 91 86 88 87
88 78 89 91 94 92 91 90 90 85 85 87 85 81 85 91 90 88 86 90 97 102 106 109 106 103 103 97 93 87 79 78 82 80 70 63 87 108 107 102 98 92 86
100 85 80 86 85 85 84 83 81 80 79 78 81 80 79 81 81 83 86 80 85 99 103 107 114 113 110 100 97 91 79 73 77 81 69 86 108 119 116 109 108 106 104
89 84 73 71 74 73 74 71 70 69 67 65 68 72 70 70 70 70 74 72 73 93 102 102 111 121 119 103 100 91 80 73 80 81 86 112 147 144 136 126 117 107 103
80 79 75 68 62 57 62 63 60 61 60 56 52 54 58 62 58 51 51 54 55 64 77 93 98 122 134 90 101 94 80 76 87 77 166 223 189 184 172 172 174 180 200
76 68 74 74 70 60 57 58 56 53 50 48 47 51 51 41 37 33 30 44 49 54 52 54 59 60 50 26 78 82 85 110 104 231 229 253 214 210 206 200 206 214 215
107 87 81 86 84 74 61 50 43 45 40 34 30 37 44 32 19 28 22 36 39 38 32 23 26 39 30 343 320 47 142 169 191 242 243 252 228 224 225 227 224 220 221
144 129 105 102 92 84 67 56 36 36 38 31 29 24 33 37 19 17 7 3 11 31 8 346 336 332 352 331 261 228 204 198 215 242 241 242 230 228 233 235 227 218 224
128 128 115 113 107 95 86 81 73 56 49 37 22 21 36 40 26 5 5 335 347 337 332 314 280 289 300 285 261 247 239 235 232 244 243 242 236 237 244 240 226 222 227
136 149 157 135 128 120 108 103 84 136 168 40 19 4 41 51 6 344 328 324 309 288 259 293 285 263 262 264 252 251 261 254 239 230 244 237 225 232 244 255 252 246 243
168 174 170 142 135 123 127 162 205 219 218 227 318 311 357 53 341 297 292 294 281 264 250 245 260 257 247 247 250 245 239 246 243 229 224 231 230 232 238 244 254 257 253
175 173 174 162 137 144 159 203 207 229 207 238 263 276 284 285 263 255 250 251 254 261 269 266 274 272 264 250 244 248 243 238 239 234 223 219 230 237 241 244 250 254 254
168 170 183 175 158 185 202 214 229 238 236 247 256 256 263 266 257 248 242 247 251 252 250 253 257 259 262 248 243 247 246 241 235 234 221 214 215 232 245 254 255 255 257
175 173 173 169 187 210 226 237 238 250 251 254 262 254 257 261 248 238 250 259 259 246 246 260 264 242 259 262 256 253 249 240 236 236 228 226 222 225 227 249 257 261 263
176 165 161 164 200 230 236 323 314 295 276 269 261 262 261 259 249 229 239 262 245 238 255 252 249 254 249 254 283 280 261 252 237 224 232 238 231 232 234 240 244 261 267
158 153 173 174 202 158 185 241 241 256 262 273 268 260 261 260 255 233 231 240 244 235 244 240 228 241 252 268 334 310 295 265 242 234 238 231 230 233 232 233 235 241 261
201 197 195 202 205 204 217 233 224 227 242 253 274 283 277 268 261 254 235 233 240 245 245 247 227 219 242 193 157 318 303 306 284 262 245 230 236 238 239 245 242 243 243
221 212 214 216 214 220 223 304 327 337 321 312 296 286 279 267 257 249 243 238 238 235 240 239 227 213 222 232 191 186 199 250 298 285 259 247 247 245 247 245 238 237 241
238 224 217 220 217 216 194 184 218 240 244 255 256 263 276 270 264 256 247 240 239 236 241 245 235 223 214 228 230 215 216 211 237 287 290 277 264 258 256 267 255 248 244
256 225 218 223 225 218 211 207 220 248 252 264 266 272 276 278 272 266 254 246 245 243 241 241 244 235 222 219 217 222 236 261 237 243 272 283 287 269 263 254 249 251 254
299 255 227 231 250 244 230 233 234 247 264 270 273 270 274 276 271 267 260 250 247 244 241 238 237 239 233 230 230 222 216 217 227 231 257 272 277 282 280 262 251 255 259